Portada
METAR-TAF:

METAR-TAF

Aeroports :

São José do Rio Preto, São Paulo, Brasil

latitud: 20-48-58S, longitud: 049-24-17W, altitud: 543 m

Observació

L'informe es va fer fa 1 hora i 15 minuts, a les 22:00 UTC
Vent 3 kt del Oest/Nord-Oest
Temperatura 32°C
Humitat 41%
Pressió 1009 hPa
Visibilitat 10 km o més
Núvols disperses a una alçada de 3000 ft

METAR: SBSR 132200Z 30003KT 9999 SCT030 32/17 Q1009

Hora: 21:15 (23:15 UTC)


TAF: manca

Observacions i pronòstics meteorològics de més de 4000 aeroports (METAR i TAF).

Les estacions disponibles són els punts grocs i vermells al mapa.

Posi el ratolí al punt desitjat per veure el nom de l'estació.

Feu clic per veure les observacions i els pronòstics meteorològics.

Per canviar el mapa: feu clic els botons verds amb una creu de color negre per apropar; al botó verd amb un guió per allunyar la imatge; o en les fletxes verdes per a mapes adjacents.


METAR-TAF: